Showing default

TBA - TO BE ASSIGNED, 64491

Orbit data source: Space-Track

TBA - TO BE ASSIGNED named objects are likely recently launched satellites that are being tracked but not necessarily identified.

Not visible in the next 10 days
Identifier
64491, 2025-133V
Orbit
LEO
Last TLE update
12 hours ago
Origin
Manufacturer
SpaceX/Seattle
Mission
Operational spacecraft
Bus & Motor
STARLINK V2MO, Unknown motor
Mass
575 kg wet, ~530 kg dry
Launch date (UTC)
2025-06-23 (1 week ago)
Launch vehicle
FALCON 9
Launch site
Air Force Eastern Test Range (AFETR)
Object type
Payload
Rocket body
Debris
Shape & HBR
Unknown
Radar Cross Section
RCS unknown

Expand to show TLE details & history

TLE from 12 hours ago
0 STARLINK-34530
1 64491U 25133V   25181.91668981 -.01184843  00000-0 -47480-2 0  9999
2 64491  53.1556 219.1810 0000869  82.6812 134.0480 15.88536809  2435
Epoch: 2025-06-30T22:00Z
TLE epoch observation values (Epoch: 2025-06-30T22:00:01.999Z)
Latitude
-28.80773°
Longitude
174.14152°
Altitude
315.476 km
Speed
7.718 km/s
True Right ascension
04h 13m 28s
True Declination
-28° 39' 11"
Sunlit
Object was in daylight at epoch
Visualization orbit readout
Latitude
-10.70172°
Longitude
155.5177°
Altitude
313.195 km
Speed
7.721 km/s
Apparent Right ascension
05h 38m 59s
Apparent Declination
-35° 13' 48"
Sunlit
Object is in daylight
Visualization observer readout
Local Sidereal Time
21:37:33
Azimuth
104.138° ESE
Elevation
-43.376°
Doppler factor
1
Orbital elements
Apogee altitude
307.229 km
Perigee altitude
306.067 km
Semi-major axis
6,684.785 km
Eccentricity
0.00009
Inclination
53.1556°
RAAN
219.181°
Arg. of periapsis
82.6812°
True anomaly
Unknown
Mean anomaly
134.048°
Eccentric anomaly
Unknown
Mean motion
3.97111 °/min
Orbital period
90.65 mins
BSTAR
-0.004748
Loading maneuver chart data...
Loading SW <> Apogee altitude chart data...

TBA - TO BE ASSIGNED Visibility

Observer location: undefined°, undefined°

TBA - TO BE ASSIGNED is likely not visible in the next few days
Span
Click to sort rows by Start time (UTC) header in descending order
Start Az.
Max El. time (UTC)
Max El. Az.
Max El.
End time (UTC)
End Az.
|